Year,Month,Day,Hour,Minute,Value (Times are PST for temperature in C)
2016,08,21,00,00,19.00
2016,08,21,00,01,19.00
2016,08,21,00,02,19.00
2016,08,21,00,03,19.00
2016,08,21,00,04,19.00
2016,08,21,00,05,18.90
2016,08,21,00,06,18.90
2016,08,21,00,07,18.90
2016,08,21,00,08,18.90
2016,08,21,00,09,18.90
2016,08,21,00,10,18.90
2016,08,21,00,11,18.90
2016,08,21,00,12,18.90
2016,08,21,00,13,18.90
2016,08,21,00,14,18.90
2016,08,21,00,15,18.80
2016,08,21,00,16,18.80
2016,08,21,00,17,18.80
2016,08,21,00,18,18.80
2016,08,21,00,19,18.80
2016,08,21,00,20,18.80
2016,08,21,00,21,18.70
2016,08,21,00,22,18.70
2016,08,21,00,23,18.70
2016,08,21,00,24,18.70
2016,08,21,00,25,18.70
2016,08,21,00,26,18.70
2016,08,21,00,27,18.70
2016,08,21,00,28,18.70
2016,08,21,00,29,18.70
2016,08,21,00,30,18.70
2016,08,21,00,31,18.70
2016,08,21,00,32,18.70
2016,08,21,00,33,18.70
2016,08,21,00,34,18.70
2016,08,21,00,35,18.70
2016,08,21,00,36,18.70
2016,08,21,00,37,18.70
2016,08,21,00,38,18.70
2016,08,21,00,39,18.70
2016,08,21,00,40,18.70
2016,08,21,00,41,18.70
2016,08,21,00,42,18.60
2016,08,21,00,43,18.60
2016,08,21,00,44,18.60
2016,08,21,00,45,18.60
2016,08,21,00,46,18.60
2016,08,21,00,47,18.60
2016,08,21,00,48,18.60
2016,08,21,00,49,18.60
2016,08,21,00,50,18.60
2016,08,21,00,51,18.60
2016,08,21,00,52,18.60
2016,08,21,00,53,18.60
2016,08,21,00,54,18.60
2016,08,21,00,55,18.50
2016,08,21,00,56,18.50
2016,08,21,00,57,18.50
2016,08,21,00,58,18.50
2016,08,21,00,59,18.40
2016,08,21,01,00,18.40
2016,08,21,01,01,18.40
2016,08,21,01,02,18.40
2016,08,21,01,03,18.40
2016,08,21,01,04,18.40
2016,08,21,01,05,18.40
2016,08,21,01,06,18.40
2016,08,21,01,07,18.40
2016,08,21,01,08,18.30
2016,08,21,01,09,18.30
2016,08,21,01,10,18.30
2016,08,21,01,11,18.30
2016,08,21,01,12,18.30
2016,08,21,01,13,18.30
2016,08,21,01,14,18.30
2016,08,21,01,15,18.30
2016,08,21,01,16,18.30
2016,08,21,01,17,18.20
2016,08,21,01,18,18.20
2016,08,21,01,19,18.20
2016,08,21,01,20,18.20
2016,08,21,01,21,18.20
2016,08,21,01,22,18.20
2016,08,21,01,23,18.20
2016,08,21,01,24,18.10
2016,08,21,01,25,18.10
2016,08,21,01,26,18.10
2016,08,21,01,27,18.10
2016,08,21,01,28,18.10
2016,08,21,01,29,18.10
2016,08,21,01,30,18.10
2016,08,21,01,31,18.10
2016,08,21,01,32,18.10
2016,08,21,01,33,18.10
2016,08,21,01,34,18.10
2016,08,21,01,35,18.10
2016,08,21,01,36,18.00
2016,08,21,01,37,18.00
2016,08,21,01,38,18.00
2016,08,21,01,39,18.00
2016,08,21,01,40,18.00
2016,08,21,01,41,17.90
2016,08,21,01,42,17.90
2016,08,21,01,43,17.90
2016,08,21,01,44,17.90
2016,08,21,01,45,17.90
2016,08,21,01,46,17.90
2016,08,21,01,47,17.90
2016,08,21,01,48,17.90
2016,08,21,01,49,17.90
2016,08,21,01,50,17.80
2016,08,21,01,51,17.80
2016,08,21,01,52,17.80
2016,08,21,01,53,17.80
2016,08,21,01,54,17.80
2016,08,21,01,55,17.80
2016,08,21,01,56,17.80
2016,08,21,01,57,17.80
2016,08,21,01,58,17.80
2016,08,21,01,59,17.80
2016,08,21,02,00,17.80
2016,08,21,02,01,17.70
2016,08,21,02,02,17.70
2016,08,21,02,03,17.70
2016,08,21,02,04,17.70
2016,08,21,02,05,17.70
2016,08,21,02,06,17.70
2016,08,21,02,07,17.70
2016,08,21,02,08,17.70
2016,08,21,02,09,17.70
2016,08,21,02,10,17.70
2016,08,21,02,11,17.70
2016,08,21,02,12,17.60
2016,08,21,02,13,17.60
2016,08,21,02,14,17.60
2016,08,21,02,15,17.60
2016,08,21,02,16,17.60
2016,08,21,02,17,17.60
2016,08,21,02,18,17.50
2016,08,21,02,19,17.50
2016,08,21,02,20,17.50
2016,08,21,02,21,17.40
2016,08,21,02,22,17.40
2016,08,21,02,23,17.40
2016,08,21,02,24,17.40
2016,08,21,02,25,17.40
2016,08,21,02,26,17.30
2016,08,21,02,27,17.30
2016,08,21,02,28,17.30
2016,08,21,02,29,17.30
2016,08,21,02,30,17.30
2016,08,21,02,31,17.30
2016,08,21,02,32,17.30
2016,08,21,02,33,17.30
2016,08,21,02,34,17.20
2016,08,21,02,35,17.20
2016,08,21,02,36,17.20
2016,08,21,02,37,17.20
2016,08,21,02,38,17.20
2016,08,21,02,39,17.20
2016,08,21,02,40,17.20
2016,08,21,02,41,17.20
2016,08,21,02,42,17.20
2016,08,21,02,43,17.20
2016,08,21,02,44,17.10
2016,08,21,02,45,17.10
2016,08,21,02,46,17.10
2016,08,21,02,47,17.10
2016,08,21,02,48,17.10
2016,08,21,02,49,17.10
2016,08,21,02,50,17.10
2016,08,21,02,51,17.00
2016,08,21,02,52,17.00
2016,08,21,02,53,17.00
2016,08,21,02,54,16.90
2016,08,21,02,55,16.90
2016,08,21,02,56,16.90
2016,08,21,02,57,16.90
2016,08,21,02,58,16.90
2016,08,21,02,59,16.90
2016,08,21,03,00,16.80
2016,08,21,03,01,16.80
2016,08,21,03,02,16.80
2016,08,21,03,03,16.80
2016,08,21,03,04,16.80
2016,08,21,03,05,16.80
2016,08,21,03,06,16.70
2016,08,21,03,07,16.70
2016,08,21,03,08,16.70
2016,08,21,03,09,16.70
2016,08,21,03,10,16.70
2016,08,21,03,11,16.70
2016,08,21,03,12,16.60
2016,08,21,03,13,16.60
2016,08,21,03,14,16.60
2016,08,21,03,15,16.60
2016,08,21,03,16,16.60
2016,08,21,03,17,16.60
2016,08,21,03,18,16.50
2016,08,21,03,19,16.50
2016,08,21,03,20,16.40
2016,08,21,03,21,16.40
2016,08,21,03,22,16.40
2016,08,21,03,23,16.40
2016,08,21,03,24,16.40
2016,08,21,03,25,16.40
2016,08,21,03,26,16.40
2016,08,21,03,27,16.40
2016,08,21,03,28,16.30
2016,08,21,03,29,16.30
2016,08,21,03,30,16.30
2016,08,21,03,31,16.30
2016,08,21,03,32,16.30
2016,08,21,03,33,16.30
2016,08,21,03,34,16.30
2016,08,21,03,35,16.30
2016,08,21,03,36,16.20
2016,08,21,03,37,16.20
2016,08,21,03,38,16.20
2016,08,21,03,39,16.20
2016,08,21,03,40,16.20
2016,08,21,03,41,16.20
2016,08,21,03,42,16.10
2016,08,21,03,43,16.10
2016,08,21,03,44,16.10
2016,08,21,03,45,16.10
2016,08,21,03,46,16.10
2016,08,21,03,47,16.10
2016,08,21,03,48,16.00
2016,08,21,03,49,16.00
2016,08,21,03,50,16.00
2016,08,21,03,51,15.90
2016,08,21,03,52,15.90
2016,08,21,03,53,15.90
2016,08,21,03,54,15.90
2016,08,21,03,55,15.90
2016,08,21,03,56,15.80
2016,08,21,03,57,15.80
2016,08,21,03,58,15.80
2016,08,21,03,59,15.80
2016,08,21,04,00,15.80
2016,08,21,04,01,15.80
2016,08,21,04,02,15.80
2016,08,21,04,03,15.80
2016,08,21,04,04,15.70
2016,08,21,04,05,15.70
2016,08,21,04,06,15.70
2016,08,21,04,07,15.70
2016,08,21,04,08,15.70
2016,08,21,04,09,15.70
2016,08,21,04,10,15.70
2016,08,21,04,11,15.70
2016,08,21,04,12,15.70
2016,08,21,04,13,15.70
2016,08,21,04,14,15.60
2016,08,21,04,15,15.60
2016,08,21,04,16,15.60
2016,08,21,04,17,15.60
2016,08,21,04,18,15.60
2016,08,21,04,19,15.50
2016,08,21,04,20,15.50
2016,08,21,04,21,15.50
2016,08,21,04,22,15.50
2016,08,21,04,23,15.40
2016,08,21,04,24,15.40
2016,08,21,04,25,15.40
2016,08,21,04,26,15.40
2016,08,21,04,27,15.40
2016,08,21,04,28,15.30
2016,08,21,04,29,15.30
2016,08,21,04,30,15.30
2016,08,21,04,31,15.30
2016,08,21,04,32,15.30
2016,08,21,04,33,15.30
2016,08,21,04,34,15.30
2016,08,21,04,35,15.30
2016,08,21,04,36,15.30
2016,08,21,04,37,15.30
2016,08,21,04,38,15.30
2016,08,21,04,39,15.20
2016,08,21,04,40,15.20
2016,08,21,04,41,15.20
2016,08,21,04,42,15.20
2016,08,21,04,43,15.20
2016,08,21,04,44,15.20
2016,08,21,04,45,15.20
2016,08,21,04,46,15.20
2016,08,21,04,47,15.20
2016,08,21,04,48,15.20
2016,08,21,04,49,15.20
2016,08,21,04,50,15.20
2016,08,21,04,51,15.20
2016,08,21,04,52,15.20
2016,08,21,04,53,15.20
2016,08,21,04,54,15.20
2016,08,21,04,55,15.20
2016,08,21,04,56,15.20
2016,08,21,04,57,15.10
2016,08,21,04,58,15.10
2016,08,21,04,59,15.20
2016,08,21,05,00,15.10
2016,08,21,05,01,15.10
2016,08,21,05,02,15.10
2016,08,21,05,03,15.10
2016,08,21,05,04,15.10
2016,08,21,05,05,15.10
2016,08,21,05,06,15.10
2016,08,21,05,07,15.10
2016,08,21,05,08,15.10
2016,08,21,05,09,15.10
2016,08,21,05,10,15.10
2016,08,21,05,11,15.10
2016,08,21,05,12,15.10
2016,08,21,05,13,15.10
2016,08,21,05,14,15.10
2016,08,21,05,15,15.10
2016,08,21,05,16,15.10
2016,08,21,05,17,15.10
2016,08,21,05,18,15.10
2016,08,21,05,19,15.10
2016,08,21,05,20,15.10
2016,08,21,05,21,15.00
2016,08,21,05,22,15.00
2016,08,21,05,23,15.00
2016,08,21,05,24,15.00
2016,08,21,05,25,15.00
2016,08,21,05,26,15.00
2016,08,21,05,27,15.00
2016,08,21,05,28,15.00
2016,08,21,05,29,15.00
2016,08,21,05,30,15.00
2016,08,21,05,31,15.00
2016,08,21,05,32,15.00
2016,08,21,05,33,15.00
2016,08,21,05,34,15.10
2016,08,21,05,35,15.10
2016,08,21,05,36,15.10
2016,08,21,05,37,15.10
2016,08,21,05,38,15.10
2016,08,21,05,39,15.10
2016,08,21,05,40,15.10
2016,08,21,05,41,15.10
2016,08,21,05,42,15.10
2016,08,21,05,43,15.10
2016,08,21,05,44,15.10
2016,08,21,05,45,15.10
2016,08,21,05,46,15.10
2016,08,21,05,47,15.10
2016,08,21,05,48,15.10
2016,08,21,05,49,15.10
2016,08,21,05,50,15.10
2016,08,21,05,51,15.10
2016,08,21,05,52,15.10
2016,08,21,05,53,15.10
2016,08,21,05,54,15.10
2016,08,21,05,55,15.10
2016,08,21,05,56,15.10
2016,08,21,05,57,15.20
2016,08,21,05,58,15.20
2016,08,21,05,59,15.20
2016,08,21,06,00,15.20
2016,08,21,06,01,15.20
2016,08,21,06,02,15.20
2016,08,21,06,03,15.20
2016,08,21,06,04,15.20
2016,08,21,06,05,15.20
2016,08,21,06,06,15.20
2016,08,21,06,07,15.20
2016,08,21,06,08,15.20
2016,08,21,06,09,15.10
2016,08,21,06,10,15.20
2016,08,21,06,11,15.20
2016,08,21,06,12,15.10
2016,08,21,06,13,15.10
2016,08,21,06,14,15.10
2016,08,21,06,15,15.10
2016,08,21,06,16,15.10
2016,08,21,06,17,15.10
2016,08,21,06,18,15.10
2016,08,21,06,19,15.10
2016,08,21,06,20,15.10
2016,08,21,06,21,15.10
2016,08,21,06,22,15.10
2016,08,21,06,23,15.00
2016,08,21,06,24,15.00
2016,08,21,06,25,15.00
2016,08,21,06,26,15.00
2016,08,21,06,27,15.00
2016,08,21,06,28,15.00
2016,08,21,06,29,15.00
2016,08,21,06,30,15.10
2016,08,21,06,31,15.10
2016,08,21,06,32,15.10
2016,08,21,06,33,15.10
2016,08,21,06,34,15.10
2016,08,21,06,35,15.10
2016,08,21,06,36,15.10
2016,08,21,06,37,15.10
2016,08,21,06,38,15.10
2016,08,21,06,39,15.10
2016,08,21,06,40,15.10
2016,08,21,06,41,15.10
2016,08,21,06,42,15.10
2016,08,21,06,43,15.10
2016,08,21,06,44,15.10
2016,08,21,06,45,15.10
2016,08,21,06,46,15.10
2016,08,21,06,47,15.10
2016,08,21,06,48,15.10
2016,08,21,06,49,15.10
2016,08,21,06,50,15.10
2016,08,21,06,51,15.10
2016,08,21,06,52,15.10
2016,08,21,06,53,15.20
2016,08,21,06,54,15.20
2016,08,21,06,55,15.20
2016,08,21,06,56,15.20
2016,08,21,06,57,15.20
2016,08,21,06,58,15.20
2016,08,21,06,59,15.20
2016,08,21,07,00,15.20
2016,08,21,07,01,15.20
2016,08,21,07,02,15.20
2016,08,21,07,03,15.20
2016,08,21,07,04,15.20
2016,08,21,07,05,15.20
2016,08,21,07,06,15.20
2016,08,21,07,07,15.20
2016,08,21,07,08,15.20
2016,08,21,07,09,15.20
2016,08,21,07,10,15.20
2016,08,21,07,11,15.20
2016,08,21,07,12,15.20
2016,08,21,07,13,15.20
2016,08,21,07,14,15.20
2016,08,21,07,15,15.20
2016,08,21,07,16,15.20
2016,08,21,07,17,15.20
2016,08,21,07,18,15.20
2016,08,21,07,19,15.20
2016,08,21,07,20,15.20
2016,08,21,07,21,15.20
2016,08,21,07,22,15.30
2016,08,21,07,23,15.30
2016,08,21,07,24,15.30
2016,08,21,07,25,15.30
2016,08,21,07,26,15.30
2016,08,21,07,27,15.30
2016,08,21,07,28,15.30
2016,08,21,07,29,15.30
2016,08,21,07,30,15.30
2016,08,21,07,31,15.30
2016,08,21,07,32,15.40
2016,08,21,07,33,15.40
2016,08,21,07,34,15.40
2016,08,21,07,35,15.40
2016,08,21,07,36,15.40
2016,08,21,07,37,15.40
2016,08,21,07,38,15.50
2016,08,21,07,39,15.50
2016,08,21,07,40,15.50
2016,08,21,07,41,15.60
2016,08,21,07,42,15.60
2016,08,21,07,43,15.60
2016,08,21,07,44,15.60
2016,08,21,07,45,15.60
2016,08,21,07,46,15.60
2016,08,21,07,47,15.60
2016,08,21,07,48,15.60
2016,08,21,07,49,15.70
2016,08,21,07,50,15.70
2016,08,21,07,51,15.70
2016,08,21,07,52,15.70
2016,08,21,07,53,15.70
2016,08,21,07,54,15.70
2016,08,21,07,55,15.70
2016,08,21,07,56,15.70
2016,08,21,07,57,15.70
2016,08,21,07,58,15.70
2016,08,21,07,59,15.70
2016,08,21,08,00,15.70
2016,08,21,08,01,15.70
2016,08,21,08,02,15.70
2016,08,21,08,03,15.80
2016,08,21,08,04,15.80
2016,08,21,08,05,15.80
2016,08,21,08,06,15.80
2016,08,21,08,07,15.90
2016,08,21,08,08,15.90
2016,08,21,08,09,16.00
2016,08,21,08,10,16.10
2016,08,21,08,11,16.10
2016,08,21,08,12,16.10
2016,08,21,08,13,16.20
2016,08,21,08,14,16.20
2016,08,21,08,15,16.30
2016,08,21,08,16,16.30
2016,08,21,08,17,16.40
2016,08,21,08,18,16.40
2016,08,21,08,19,16.40
2016,08,21,08,20,16.50
2016,08,21,08,21,16.50
2016,08,21,08,22,16.50
2016,08,21,08,23,16.50
2016,08,21,08,24,16.50
2016,08,21,08,25,16.60
2016,08,21,08,26,16.60
2016,08,21,08,27,16.60
2016,08,21,08,28,16.60
2016,08,21,08,29,16.60
2016,08,21,08,30,16.70
2016,08,21,08,31,16.70
2016,08,21,08,32,16.80
2016,08,21,08,33,16.80
2016,08,21,08,34,16.90
2016,08,21,08,35,16.90
2016,08,21,08,36,16.90
2016,08,21,08,37,17.00
2016,08,21,08,38,17.00
2016,08,21,08,39,17.10
2016,08,21,08,40,17.10
2016,08,21,08,41,17.10
2016,08,21,08,42,17.20
2016,08,21,08,43,17.20
2016,08,21,08,44,17.30
2016,08,21,08,45,17.30
2016,08,21,08,46,17.30
2016,08,21,08,47,17.30
2016,08,21,08,48,17.30
2016,08,21,08,49,17.30
2016,08,21,08,50,17.30
2016,08,21,08,51,17.30
2016,08,21,08,52,17.30
2016,08,21,08,53,17.30
2016,08,21,08,54,17.30
2016,08,21,08,55,17.20
2016,08,21,08,56,17.20
2016,08,21,08,57,17.20
2016,08,21,08,58,17.10
2016,08,21,08,59,17.10
2016,08,21,09,00,17.10
2016,08,21,09,01,17.10
2016,08,21,09,02,17.10
2016,08,21,09,03,17.10
2016,08,21,09,04,17.10
2016,08,21,09,05,17.10
2016,08,21,09,06,17.10
2016,08,21,09,07,17.10
2016,08,21,09,08,17.10
2016,08,21,09,09,17.10
2016,08,21,09,10,17.10
2016,08,21,09,11,17.10
2016,08,21,09,12,17.10
2016,08,21,09,13,17.10
2016,08,21,09,14,17.10
2016,08,21,09,15,17.10
2016,08,21,09,16,17.10
2016,08,21,09,17,17.10
2016,08,21,09,18,17.20
2016,08,21,09,19,17.20
2016,08,21,09,20,17.20
2016,08,21,09,21,17.20
2016,08,21,09,22,17.20
2016,08,21,09,23,17.10
2016,08,21,09,24,17.10
2016,08,21,09,25,17.10
2016,08,21,09,26,17.10
2016,08,21,09,27,17.10
2016,08,21,09,28,17.10
2016,08,21,09,29,17.10
2016,08,21,09,30,17.10
2016,08,21,09,31,17.10
2016,08,21,09,32,17.00
2016,08,21,09,33,17.00
2016,08,21,09,34,17.00
2016,08,21,09,35,17.00
2016,08,21,09,36,17.00
2016,08,21,09,37,17.10
2016,08,21,09,38,17.10
2016,08,21,09,39,17.10
2016,08,21,09,40,17.10
2016,08,21,09,41,17.10
2016,08,21,09,42,17.10
2016,08,21,09,43,17.10
2016,08,21,09,44,17.10
2016,08,21,09,45,17.10
2016,08,21,09,46,17.10
2016,08,21,09,47,17.10
2016,08,21,09,48,17.10
2016,08,21,09,49,17.10
2016,08,21,09,50,17.10
2016,08,21,09,51,17.10
2016,08,21,09,52,17.10
2016,08,21,09,53,17.10
2016,08,21,09,54,17.10
2016,08,21,09,55,17.10
2016,08,21,09,56,17.10
2016,08,21,09,57,17.10
2016,08,21,09,58,17.00
2016,08,21,09,59,17.00
2016,08,21,10,00,17.00
2016,08,21,10,01,16.90
2016,08,21,10,02,16.90
2016,08,21,10,03,16.90
2016,08,21,10,04,16.90
2016,08,21,10,05,16.90
2016,08,21,10,06,16.80
2016,08,21,10,07,16.80
2016,08,21,10,08,16.80
2016,08,21,10,09,16.80
2016,08,21,10,10,16.80
2016,08,21,10,11,16.80
2016,08,21,10,12,16.80
2016,08,21,10,13,16.70
2016,08,21,10,14,16.70
2016,08,21,10,15,16.70
2016,08,21,10,16,16.70
2016,08,21,10,17,16.70
2016,08,21,10,18,16.60
2016,08,21,10,19,16.60
2016,08,21,10,20,16.60
2016,08,21,10,21,16.60
2016,08,21,10,22,16.50
2016,08,21,10,23,16.50
2016,08,21,10,24,16.50
2016,08,21,10,25,16.40
2016,08,21,10,26,16.40
2016,08,21,10,27,16.40
2016,08,21,10,28,16.40
2016,08,21,10,29,16.40
2016,08,21,10,30,16.40
2016,08,21,10,31,16.50
2016,08,21,10,32,16.50
2016,08,21,10,33,16.50
2016,08,21,10,34,16.60
2016,08,21,10,35,16.60
2016,08,21,10,36,16.70
2016,08,21,10,37,16.70
2016,08,21,10,38,16.70
2016,08,21,10,39,16.80
2016,08,21,10,40,16.80
2016,08,21,10,41,16.90
2016,08,21,10,42,17.00
2016,08,21,10,43,17.00
2016,08,21,10,44,17.10
2016,08,21,10,45,17.10
2016,08,21,10,46,17.10
2016,08,21,10,47,17.20
2016,08,21,10,48,17.20
2016,08,21,10,49,17.30
2016,08,21,10,50,17.30
2016,08,21,10,51,17.30
2016,08,21,10,52,17.40
2016,08,21,10,53,17.40
2016,08,21,10,54,17.40
2016,08,21,10,55,17.50
2016,08,21,10,56,17.50
2016,08,21,10,57,17.50
2016,08,21,10,58,17.50
2016,08,21,10,59,17.50
2016,08,21,11,00,17.50
2016,08,21,11,01,17.40
2016,08,21,11,02,17.40
2016,08,21,11,03,17.40
2016,08,21,11,04,17.40
2016,08,21,11,05,17.40
2016,08,21,11,06,17.40
2016,08,21,11,07,17.50
2016,08,21,11,08,17.60
2016,08,21,11,09,17.70
2016,08,21,11,10,17.80
2016,08,21,11,11,17.80
2016,08,21,11,12,17.80
2016,08,21,11,13,17.80
2016,08,21,11,14,17.70
2016,08,21,11,15,17.70
2016,08,21,11,16,17.70
2016,08,21,11,17,17.60
2016,08,21,11,18,17.50
2016,08,21,11,19,17.50
2016,08,21,11,20,17.40
2016,08,21,11,21,17.40
2016,08,21,11,22,17.40
2016,08,21,11,23,17.40
2016,08,21,11,24,17.50
2016,08,21,11,25,17.50
2016,08,21,11,26,17.60
2016,08,21,11,27,17.70
2016,08,21,11,28,17.90
2016,08,21,11,29,18.00
2016,08,21,11,30,18.10
2016,08,21,11,31,18.20
2016,08,21,11,32,18.20
2016,08,21,11,33,18.20
2016,08,21,11,34,18.30
2016,08,21,11,35,18.30
2016,08,21,11,36,18.40
2016,08,21,11,37,18.40
2016,08,21,11,38,18.40
2016,08,21,11,39,18.50
2016,08,21,11,40,18.60
2016,08,21,11,41,18.70
2016,08,21,11,42,18.70
2016,08,21,11,43,18.80
2016,08,21,11,44,18.80
2016,08,21,11,45,18.70
2016,08,21,11,46,18.70
2016,08,21,11,47,18.80
2016,08,21,11,48,18.80
2016,08,21,11,49,18.90
2016,08,21,11,50,19.00
2016,08,21,11,51,19.10
2016,08,21,11,52,19.20
2016,08,21,11,53,19.20
2016,08,21,11,54,19.20
2016,08,21,11,55,19.30
2016,08,21,11,56,19.40
2016,08,21,11,57,19.40
2016,08,21,11,58,19.40
2016,08,21,11,59,19.50
2016,08,21,12,00,19.50
2016,08,21,12,01,19.60
2016,08,21,12,02,19.60
2016,08,21,12,03,19.50
2016,08,21,12,04,19.40
2016,08,21,12,05,19.40
2016,08,21,12,06,19.30
2016,08,21,12,07,19.20
2016,08,21,12,08,19.10
2016,08,21,12,09,19.10
2016,08,21,12,10,19.10
2016,08,21,12,11,19.20
2016,08,21,12,12,19.20
2016,08,21,12,13,19.20
2016,08,21,12,14,19.10
2016,08,21,12,15,19.00
2016,08,21,12,16,19.00
2016,08,21,12,17,19.10
2016,08,21,12,18,19.20
2016,08,21,12,19,19.20
2016,08,21,12,20,19.20
2016,08,21,12,21,19.20
2016,08,21,12,22,19.20
2016,08,21,12,23,19.20
2016,08,21,12,24,19.20
2016,08,21,12,25,19.30
2016,08,21,12,26,19.40
2016,08,21,12,27,19.50
2016,08,21,12,28,19.60
2016,08,21,12,29,19.70
2016,08,21,12,30,19.70
2016,08,21,12,31,19.70
2016,08,21,12,32,19.60
2016,08,21,12,33,19.50
2016,08,21,12,34,19.40
2016,08,21,12,35,19.30
2016,08,21,12,36,19.30
2016,08,21,12,37,19.30
2016,08,21,12,38,19.30
2016,08,21,12,39,19.30
2016,08,21,12,40,19.40
2016,08,21,12,41,19.50
2016,08,21,12,42,19.50
2016,08,21,12,43,19.50
2016,08,21,12,44,19.50
2016,08,21,12,45,19.50
2016,08,21,12,46,19.50
2016,08,21,12,47,19.50
2016,08,21,12,48,19.50
2016,08,21,12,49,19.60
2016,08,21,12,50,19.70
2016,08,21,12,51,19.70
2016,08,21,12,52,19.80
2016,08,21,12,53,19.80
2016,08,21,12,54,19.80
2016,08,21,12,55,19.80
2016,08,21,12,56,19.90
2016,08,21,12,57,19.90
2016,08,21,12,58,19.90
2016,08,21,12,59,20.00
2016,08,21,13,00,20.00
2016,08,21,13,01,20.10
2016,08,21,13,02,20.10
2016,08,21,13,03,20.10
2016,08,21,13,04,20.20
2016,08,21,13,05,20.20
2016,08,21,13,06,20.10
2016,08,21,13,07,20.10
2016,08,21,13,08,20.20
2016,08,21,13,09,20.30
2016,08,21,13,10,20.30
2016,08,21,13,11,20.40
2016,08,21,13,12,20.40
2016,08,21,13,13,20.40
2016,08,21,13,14,20.40
2016,08,21,13,15,20.40
2016,08,21,13,16,20.50
2016,08,21,13,17,20.50
2016,08,21,13,18,20.50
2016,08,21,13,19,20.50
2016,08,21,13,20,20.40
2016,08,21,13,21,20.40
2016,08,21,13,22,20.40
2016,08,21,13,23,20.30
2016,08,21,13,24,20.30
2016,08,21,13,25,20.30
2016,08,21,13,26,20.20
2016,08,21,13,27,20.20
2016,08,21,13,28,20.10
2016,08,21,13,29,20.00
2016,08,21,13,30,20.00
2016,08,21,13,31,20.00
2016,08,21,13,32,19.90
2016,08,21,13,33,19.90
2016,08,21,13,34,19.80
2016,08,21,13,35,19.80
2016,08,21,13,36,19.80
2016,08,21,13,37,19.80
2016,08,21,13,38,19.80
2016,08,21,13,39,19.80
2016,08,21,13,40,19.80
2016,08,21,13,41,19.90
2016,08,21,13,42,20.00
2016,08,21,13,43,20.10
2016,08,21,13,44,20.20
2016,08,21,13,45,20.30
2016,08,21,13,46,20.30
2016,08,21,13,47,20.40
2016,08,21,13,48,20.50
2016,08,21,13,49,20.60
2016,08,21,13,50,20.60
2016,08,21,13,51,20.60
2016,08,21,13,52,20.60
2016,08,21,13,53,20.60
2016,08,21,13,54,20.50
2016,08,21,13,55,20.50
2016,08,21,13,56,20.40
2016,08,21,13,57,20.40
2016,08,21,13,58,20.40
2016,08,21,13,59,20.40
2016,08,21,14,00,20.40
2016,08,21,14,01,20.40
2016,08,21,14,02,20.40
2016,08,21,14,03,20.50
2016,08,21,14,04,20.50
2016,08,21,14,05,20.60
2016,08,21,14,06,20.70
2016,08,21,14,07,20.80
2016,08,21,14,08,20.80
2016,08,21,14,09,20.90
2016,08,21,14,10,21.00
2016,08,21,14,11,21.10
2016,08,21,14,12,21.20
2016,08,21,14,13,21.30
2016,08,21,14,14,21.30
2016,08,21,14,15,21.30
2016,08,21,14,16,21.20
2016,08,21,14,17,21.20
2016,08,21,14,18,21.20
2016,08,21,14,19,21.10
2016,08,21,14,20,21.00
2016,08,21,14,21,20.90
2016,08,21,14,22,20.90
2016,08,21,14,23,20.80
2016,08,21,14,24,20.70
2016,08,21,14,25,20.70
2016,08,21,14,26,20.80
2016,08,21,14,27,20.80
2016,08,21,14,28,20.80
2016,08,21,14,29,20.80
2016,08,21,14,30,20.80
2016,08,21,14,31,20.90
2016,08,21,14,32,20.90
2016,08,21,14,33,21.00
2016,08,21,14,34,21.00
2016,08,21,14,35,20.90
2016,08,21,14,36,20.90
2016,08,21,14,37,20.90
2016,08,21,14,38,20.90
2016,08,21,14,39,21.00
2016,08,21,14,40,21.00
2016,08,21,14,41,21.00
2016,08,21,14,42,20.90
2016,08,21,14,43,20.90
2016,08,21,14,44,21.00
2016,08,21,14,45,21.00
2016,08,21,14,46,21.00
2016,08,21,14,47,21.00
2016,08,21,14,48,21.00
2016,08,21,14,49,21.10
2016,08,21,14,50,21.10
2016,08,21,14,51,21.20
2016,08,21,14,52,21.30
2016,08,21,14,53,21.30
2016,08,21,14,54,21.30
2016,08,21,14,55,21.30
2016,08,21,14,56,21.30
2016,08,21,14,57,21.20
2016,08,21,14,58,21.20
2016,08,21,14,59,21.10
2016,08,21,15,00,21.00
2016,08,21,15,01,21.00
2016,08,21,15,02,20.90
2016,08,21,15,03,21.00
2016,08,21,15,04,21.10
2016,08,21,15,05,21.10
2016,08,21,15,06,21.20
2016,08,21,15,07,21.30
2016,08,21,15,08,21.40
2016,08,21,15,09,21.40
2016,08,21,15,10,21.30
2016,08,21,15,11,21.30
2016,08,21,15,12,21.20
2016,08,21,15,13,21.10
2016,08,21,15,14,21.10
2016,08,21,15,15,21.00
2016,08,21,15,16,21.00
2016,08,21,15,17,21.00
2016,08,21,15,18,21.00
2016,08,21,15,19,20.90
2016,08,21,19,23,17.90
2016,08,21,19,24,17.90
2016,08,21,19,25,17.90
2016,08,21,19,26,17.90
2016,08,21,19,27,17.90
2016,08,21,19,28,17.90
2016,08,21,19,29,17.80
2016,08,21,19,30,17.80
2016,08,21,19,31,17.80
2016,08,21,19,32,17.80
2016,08,21,19,33,17.80
2016,08,21,19,34,17.80
2016,08,21,19,35,17.80
2016,08,21,19,36,17.80
2016,08,21,19,37,17.70
2016,08,21,19,38,17.70
2016,08,21,19,39,17.70
2016,08,21,19,40,17.70
2016,08,21,19,41,17.70
2016,08,21,19,42,17.70
2016,08,21,19,43,17.70
2016,08,21,19,44,17.60
2016,08,21,19,45,17.60
2016,08,21,19,46,17.60
2016,08,21,19,47,17.60
2016,08,21,19,48,17.60
2016,08,21,19,49,17.50
2016,08,21,19,50,17.50
2016,08,21,19,51,17.50
2016,08,21,19,52,17.50
2016,08,21,19,53,17.40
2016,08,21,19,54,17.40
2016,08,21,19,55,17.40
2016,08,21,19,56,17.40
2016,08,21,19,57,17.40
2016,08,21,19,58,17.40
2016,08,21,19,59,17.40
2016,08,21,20,00,17.40
2016,08,21,20,01,17.40
2016,08,21,20,02,17.40
2016,08,21,20,03,17.30
2016,08,21,20,04,17.30
2016,08,21,20,05,17.30
2016,08,21,20,06,17.30
2016,08,21,20,07,17.30
2016,08,21,20,08,17.30
2016,08,21,20,09,17.20
2016,08,21,20,10,17.20
2016,08,21,20,11,17.20
2016,08,21,20,12,17.20
2016,08,21,20,13,17.20
2016,08,21,20,14,17.20
2016,08,21,20,15,17.20
2016,08,21,20,16,17.10
2016,08,21,20,17,17.10
2016,08,21,20,18,17.10
2016,08,21,20,19,17.10
2016,08,21,20,20,17.10
2016,08,21,20,21,17.00
2016,08,21,20,22,17.00
2016,08,21,20,23,17.00
2016,08,21,20,24,17.00
2016,08,21,20,25,16.90
2016,08,21,20,26,16.90
2016,08,21,20,27,16.90
2016,08,21,20,28,16.90
2016,08,21,20,29,16.80
2016,08,21,20,30,16.80
2016,08,21,20,31,16.80
2016,08,21,20,32,16.80
2016,08,21,20,33,16.80
2016,08,21,20,34,16.80
2016,08,21,20,35,16.70
2016,08,21,20,36,16.70
2016,08,21,20,37,16.70
2016,08,21,20,38,16.70
2016,08,21,20,39,16.70
2016,08,21,20,40,16.70
2016,08,21,20,41,16.70
2016,08,21,20,42,16.70
2016,08,21,20,43,16.70
2016,08,21,20,44,16.70
2016,08,21,20,45,16.70
2016,08,21,20,46,16.70
2016,08,21,20,47,16.70
2016,08,21,20,48,16.60
2016,08,21,20,49,16.60
2016,08,21,20,50,16.60
2016,08,21,20,51,16.60
2016,08,21,20,52,16.60
2016,08,21,20,53,16.60
2016,08,21,20,54,16.60
2016,08,21,20,55,16.60
2016,08,21,20,56,16.50
2016,08,21,20,57,16.50
2016,08,21,20,58,16.50
2016,08,21,20,59,16.50
2016,08,21,21,00,16.50
2016,08,21,21,01,16.50
2016,08,21,21,02,16.40
2016,08,21,21,03,16.40
2016,08,21,21,04,16.40
2016,08,21,21,05,16.40
2016,08,21,21,06,16.40
2016,08,21,21,07,16.40
2016,08,21,21,08,16.40
2016,08,21,21,09,16.40
2016,08,21,21,10,16.40
2016,08,21,21,11,16.40
2016,08,21,21,12,16.30
2016,08,21,21,13,16.30
2016,08,21,21,14,16.30
2016,08,21,21,15,16.30
2016,08,21,21,16,16.30
2016,08,21,21,17,16.30
2016,08,21,21,18,16.20
2016,08,21,21,19,16.20
2016,08,21,21,20,16.20
2016,08,21,21,21,16.20
2016,08,21,21,22,16.20